Location: Degersen
(52.2871°N, 9.5716°E)
Time: 00:34:45
(UTC+00:00)

Helios 1A Rocket - Pass Details

Date: 20 January 2026
Orbit: 425 x 435 km, 98.3° (Epoch: 17 February)

Event Time Altitude Azimuth Distance (km) Brightness Sun altitude
Rises 05:45:27 0° 187° (S) 2,436 6.2 -13.9°
Reaches altitude 10° 05:47:37 10° 199° (SSW) 1,569 5.1 -13.6°
Maximum altitude 05:50:38 30° 262° (W) 831 3.2 -13.1°
Enters shadow 05:52:06 21° 306° (NW) 1,055 3.7 -12.9°
